www.pogodaiklimat.ru

Архив погоды в Выборге (Ленинградская область, Россия)

Время
(UTC), дата
12 12.10
15 12.10
18 12.10
21 12.10
00 13.10
03 13.10
06 13.10
09 13.10
12 13.10
15 13.10
18 13.10
21 13.10
00 14.10
03 14.10
06 14.10
09 14.10
12 14.10
15 14.10
18 14.10
21 14.10
00 15.10
03 15.10
06 15.10
09 15.10
12 15.10
15 15.10
18 15.10
21 15.10
00 16.10
03 16.10
06 16.10
09 16.10
12 16.10
15 16.10
18 16.10
21 16.10
00 17.10
03 17.10
06 17.10
09 17.10
12 17.10
15 17.10
18 17.10
21 17.10
00 18.10
03 18.10
06 18.10
09 18.10
12 18.10
15 18.10
18 18.10
21 18.10
00 19.10
03 19.10
06 19.10
09 19.10
Ветер
(напр.,м/с)
Видим. Явления Облачность Т
(С)
Тd
(С)
f
(%)
Тe
(С)
Тes
(С)
Комфортность P
(гПа)
Po
(гПа)
Тmin
(С)
Tmax
(С)
R
(мм)
R24
(мм)
S
(см)
Ю 5 20 км в посл. час ливневой дождь 10/8 300 м
[Cb cap Ac As]
+7.4 +5.5 88 +3 +4 по сезону 1007.9 1006.3
ЮВ 2 10 км 10/8 600 м
[Cb cap Ac As]
+8.0 +5.9 87 +6 +6 по сезону 1008.1 1006.5 0.7
Ю 3 10 км слаб. ливневой дождь 10/10 570 м
[Cb cap]
+7.9 +6.8 93 +5 +5 по сезону 1008.6 1007.1 +8.2 2
ЮВ 1 10 км {ливн. дождь} 8/6 800 м
[Cb cap Ac trans]
+7.4 +6.2 92 +6 +6 по сезону 1008.8 1007.2
В 1 10 км {ливн. дождь} 6/0
[Ac trans Ci fib]
+6.4 +5.5 94 +5 +5 по сезону 1008.4 1006.8
ЮВ 1 10 км 8/0
[Ac trans Ci fib]
+6.1 +4.1 87 +5 +5 по сезону 1008.2 1006.7 +5.2 1
В 1 10 км 9/8 840 м
[Cb cap Ac trans Ci fib]
+5.4 +4.3 93 +4 +4 по сезону 1008.6 1007.0 +4.8
Ю 2 20 км 10/6 400 м
[Cb cap Ac As Ci fib]
+7.7 +5.7 87 +6 +6 по сезону 1009.0 1007.4
ЮЗ 1 20 км {ливн. дождь} 8/6 600 м
[Cb cap Ci fib]
+9.4 +6.4 82 +9 +10 тепло 1009.3 1007.8
З 3 20 км 8/6 1200 м
[Cb cap Ac trans Ci fib]
+8.4 +5.4 81 +6 +6 по сезону 1010.3 1008.8 0.0
З 1 10 км {ливн. дождь} 10/6 1440 м
[Cb cap Ac und]
+6.6 +5.8 95 +5 +5 по сезону 1011.8 1010.2 +9.9 3
СЗ 1 10 км 10/8 150 м
[Cb cap Ac und]
+6.1 +5.3 95 +5 +5 по сезону 1012.9 1011.3
З 2 10 км 6/6 180 м
[Frnb]
+5.4 +4.6 95 +3 +3 по сезону 1013.9 1012.3
Ю 1 200 м туман ?/? +3.4 +3.0 97 +2 +2 по сезону 1014.8 1013.2 +3.3 3
ЮВ 2 500 м туман ?/? +2.8 +2.5 98 -1 -1 прохладно 1015.3 1013.6 +2.7
ЮВ 2 20 км слаб. ливневой дождь {туман} 9/8 960 м
[Cb cap Ac trans]
+5.2 +4.8 97 +2 +3 по сезону 1015.3 1013.7
ЮЗ 7 20 км {ливн. дождь, туман} 9/6 600 м
[Cb cap Ac trans Ci fib]
+8.1 +5.7 85 +4 +4 по сезону 1014.5 1012.9
Ю 5 20 км 10/9 800 м
[Cb cap As op]
+7.2 +4.5 83 +3 +3 по сезону 1013.5 1011.9 2
ЮВ 5 20 км 3/0
[Ci fib]
+5.5 +4.3 92 +1 +1 по сезону 1012.3 1010.7 +8.4 2
Ю 5 10 км 10/8 1410 м
[Cb cap As op]
+6.8 +4.5 85 +3 +3 по сезону 1010.0 1008.4
ЮЗ 7
{11}
10 км 10/8 870 м
[Cb cap Ac As]
+7.9 +3.4 73 +4 +4 по сезону 1008.0 1006.4
Ю 7
{12}
10 км 8/0
[Ac trans Ci fib]
+6.5 +3.9 83 +2 +2 по сезону 1005.9 1004.3 +5.0
Ю 7 20 км 9/6 1300 м
[Cb cap Ac trans Ci fib]
+6.5 +4.3 86 +2 +2 по сезону 1003.7 1002.1 +5.0
Ю 8-10
{11}
10 км в посл. час ливневой дождь 10/8 400 м
[Cb cap Ac As]
+7.3 +5.1 86 +2 +2 по сезону 1001.8 1000.2
Ю 8-11
{12}
10 км слаб. дождь 10/10 270 м
[Sc diur, vesp]
+7.1 +5.5 90 +2 +2 по сезону 1000.2 998.6
Ю 9-11
{11}
10 км в посл. час дождь 10/10 210 м
[Sc]
+7.3 +6.3 93 +2 +2 по сезону 997.5 996.0 1
Ю 11-15
{15}
4000 м слаб. дождь 10/10 270 м
[Ns]
+8.3 +7.4 94 +3 +3 по сезону 993.1 991.6 +8.3 3
Ю 8-11
{16}
4000 м слаб. дождь 10/10 300 м
[Ns]
+8.4 +7.1 92 +4 +4 по сезону 992.5 990.9
З 8-11
{11}
10 км {дождь} 3/0
[Ac trans]
+5.8 +3.0 82 0 0 по сезону 993.3 991.7
З 6
{16}
10 км 3/0
[Ac trans]
+4.3 +1.1 80 -1 -1 по сезону 994.8 993.2 +4.2 6
З 7-10
{11}
20 км 8/1 600 м
[Cu med, cong Ci]
+4.7 +1.0 77 -1 -1 по сезону 995.9 994.3 +4.2 4
З 8-11
{15}
20 км 6/6 1000 м
[Cu hum]
+7.1 +0.5 63 +2 +2 по сезону 996.8 995.3
З 9-13
{16}
20 км 6/6 1000 м
[Cu hum]
+8.2 -0.4 55 +4 +4 по сезону 997.6 996.0
З 6
{15}
20 км 4/3 1000 м
[Cb cap Ci fib]
+7.4 +0.3 61 +3 +3 по сезону 997.5 996.0
З 6
{12}
20 км 6/0
[Ac trans Ci fib]
+7.2 +0.1 61 +3 +3 по сезону 997.2 995.6 +9.0
З 6
{11}
20 км 3/0
[Ci fib]
+5.8 +0.9 71 +1 +1 по сезону 996.9 995.4
З 7-10
{10}
20 км 3/0
[Ci fib]
+4.8 +1.2 77 -1 -1 по сезону 997.6 996.0
З 6-10
{10}
20 км ясно +3.6 +0.4 80 -2 -2 по сезону 998.2 996.6 +3.5
З 6
{10}
20 км ясно +3.4 0.0 78 -2 -2 по сезону 999.3 997.7 +3.2
З 9-14
{16}
20 км 8/0
[Ac As]
+5.8 -0.7 63 0 0 по сезону 1000.5 998.9
З 9-15
{15}
20 км 6/0
[Ac As]
+7.2 -1.7 53 +2 +3 по сезону 1001.3 999.7
З 5
{14}
20 км 3/0
[Ac As]
+5.9 -1.1 61 +2 +2 по сезону 1001.9 1000.4
З 5
{10}
20 км 4/0
[Ac trans]
+4.9 -1.1 65 +1 +1 по сезону 1002.0 1000.4 +7.7
З 6 20 км 4/0
[Ac As]
+3.9 -0.9 71 -1 -1 по сезону 1001.7 1000.1
З 5 10 км 10/6 500 м
[Sc Ac und]
+2.9 -0.3 79 -2 -2 по сезону 1001.6 1000.0
СЗ 4 10 км {дождь} 10/8 270 м
[St Ac und]
+2.4 +1.0 90 -3 -3 прохладно 1001.8 1000.2 +2.1 0.3
СЗ 5 20 км {дождь} 10/6 480 м
[Sc Ac As]
+3.5 +2.1 91 -2 -2 по сезону 1003.2 1001.6 +2.1 0.3
СЗ 4 20 км {дождь} 10/10 540 м
[Sc]
+5.4 +2.9 84 +1 +1 по сезону 1005.5 1003.9
С 3
{10}
20 км {дождь} 8/8 600 м
[Sc]
+5.6 +2.0 78 +2 +3 по сезону 1007.6 1006.0
СЗ 2
{10}
20 км {ливн. дождь, дождь} 10/10 570 м
[Cb cap]
+4.0 +1.8 86 +1 +1 по сезону 1010.1 1008.5 0.3
СЗ 2 20 км {ливн. дождь} 6/0 1000 м
[Ac trans]
+3.1 +1.1 87 0 0 по сезону 1012.3 1010.6 +7.1 0.3
СЗ 3 10 км 10/10 750 м
[Sc]
+2.9 +1.7 92 -1 -1 по сезону 1013.5 1011.9
СЗ 3 10 км 10/10 720 м
[Sc]
+2.8 +1.0 88 -1 -1 по сезону 1015.0 1013.3
СЗ 3 10 км слаб. дождь 10/10 450 м
[Ns]
+1.5 +0.2 91 -3 -3 по сезону 1015.9 1014.2 +1.5 0.3
СЗ 3 20 км {дождь} 10/10 1200 м
[Sc]
+1.2 -2.1 79 -3 -3 по сезону 1017.4 1015.7 +0.7 0.3
С 4 20 км 4/4 600 м
[Cu hum]
+2.7 -4.2 60 -2 -1 по сезону 1018.7 1017.1
Местоположение метеостанции Выборг (Ленинградская область, Россия): широта 60.72 долгота 28.73 высота над уровнем моря 13 м.
В архиве по умолчанию представлена погода в Выборге за последнюю неделю. Архивные данные за месяц целиком и за предыдущие месяцы, начиная с января 2011 года, Вы можете получить, выбрав интересующий диапазон дат из раскрывающегося списка и нажав кнопку "Найти!".
*Определитесь, кто Вы:
Внимание! Время в таблицах - всемирное. Для получения местного времени необходимо прибавить поправку, которая равна 3 ч.
Смотрите также архив погоды в соседних городах и на ближайших метеорологических станциях:
Партнеры нашего сайта:      
Пояснения к столбцам:
  • Ветер - указаны скорость ветра в м/с - средняя за 10 мин, порывы в срок и между сроками (в фигурных скобках) и направление, откуда дует ветер: С - северный,
  • СВ - северо-восточный, В - восточный, ЮВ - юго-восточный, Ю - южный, ЮЗ - юго-западный, З - западный, СЗ - северо-западный.
  • Видимость - горизонтальная дальность видимости в метрах или километрах. При видимости от 1 до 10 км при отсутствии осадков обычно наблюдается дымка, при ухудшении видимости до 1 км и менее - туман. В сухую погоду видимость может ухудшаться дымом, пылью или мглою.
  • Явления - указаны атмосферные явления, наблюдавшиеся в срок или в последний час перед сроком; фигурными скобками обозначены явления, наблюдавшиеся между сроками (за 1-3 часа до срока); квадратными скобками обозначены град или гололедные отложения с указанием их диаметра в мм.
  • Облачность - указаны через наклонную черту общая и нижняя облачность в баллах и высота нижней границы облаков в метрах; квадратными скобками обозначены формы облаков: Ci - перистые, Cs - перисто-слоистые, Cc - перисто-кучевые, Ac - высококучевые, As - высокослоистые, Sc - слоисто-кучевые, Ns - слоисто-дождевые, Cu - кучевые, Cb - кучево-дождевые. Подробнее классификацию облаков см. в Атласе облаков (PDF).
  • T - Температура воздуха - температура, измеренная на высоте 2 м над землей.
  • Td - Температура точки росы - температура, при понижении до которой содержащийся в воздухе водяной пар достигнет насыщения.
  • f - Относительная влажность воздуха - влажноcть воздуха, измеренная на высоте 2 м над землей.
  • Te - Эффективная температура - температура, которую ощущает одетый по сезону человек в тени. Характеристика душности погоды. При расчете учитывается влияние влажности воздуха и скорости ветра на теплоощущения человека.
  • Tes - Эффективная температура на солнце - температура, которую ощущает человек, с поправкой на солнечный нагрев. Характеристика знойности погоды. Зависит от высоты солнца над горизонтом, облачности и скорости ветра. Ночью, в пасмурную погоду, а также при ветре 12 м/с и более поправка равна нулю.
  • P - Атмосферное давление - приведенное к уровню моря атмосферное давление.
  • Po - Атмосферное давление - измеренное на уровне метеостанции атмосферное давление.
  • Tmin - Минимальная температура - минимум температуры воздуха на высоте 2 м над землей.
  • Tmax - Максимальная температура - максимум температуры воздуха на высоте 2 м над землей.
  • R - Количество осадков - Количество выпавших осадков за период времени, мм. При наведении курсора мыши на число - период времени, за который выпало указанное количество осадков.
  • R24 - Количество осадков - Количество выпавших осадков за 24 часа, мм.
  • S - Снежный покров - Высота снежного покрова, см. При наведении курсора мыши на число - состояние снежного покрова и степень покрытия местности в баллах.